レモン彗星

C/2023 H2 ( Lemmon )

English version
Home page
Updated on July 27, 2024

---------------------------------------------------------------------

・ プロフィール

発見日 2023年4月23日
発見光度 20.7等
発見者 Mt. Lemmon Survey

・ 写真集

・ 軌道要素

Epoch 2024 Mar. 31.0 TT = JDT 2460400.5
T 2023 Oct. 29.18591 TT                                 Rudenko
q   0.8943855            (2000.0)            P               Q
z  +0.0041022      Peri.  150.64552     +0.57672723     +0.60277703
 +/-0.0000023      Node   217.04470     +0.44788152     +0.33118545
e   0.9963311      Incl.  113.75357     +0.68321874     -0.72593116
>From 745 observations 2023 Mar. 26-2024 Jan. 12, mean residual 0".8.

・ 星図

・ 光度変化

        m1 =  9.5 + 5 logΔ + 20.0 log r         [   ,-58]  (              〜2023年 9月 1日)
        m1 = 10.5 + 5 logΔ + 10.0 log r(t - 8)  [-58,120]  (2023年 9月 1日〜2024年 2月26日)
        m1 =  7.0 + 5 logΔ + 20.0 log r         [120,   ]  (2024年 2月26日〜              )

---------------------------------------------------------------------

軌道要素はM.P.E.C. 2024-E157に掲載されたものです。
星図はステラナビゲータ Ver.11 (アストロアーツ) で作成したものです。
光度グラフはComet for Windowsで作成したものです。

---------------------------------------------------------------------

Copyright(C) Seiichi Yoshida (comet@aerith.net). All rights reserved.